User: anonymous   Login
Location: Newark
(34.1333°N, 7.9667°W)
Time: 19:41:48
(UTC+00:00)
Language:

COSMOS 2251 DEB - Orbit

View from above orbital plane
View from above orbital plane
View from above satellite
View from above satellite

Ground track
Ground track

The orbit data is extracted from the following two-line orbital elements,

1 34609U 93036WE  24058.50281278  .00004533  00000-0  20105-2 0  9990
2 34609  73.7338 218.3781 0152793 182.2149 237.6716 14.17300674774530
Epoch (UTC): 27 February 2024 12:04:03
Eccentricity: 0.0152793
inclination: 73.7338°
perigee height: 724 km
apogee height: 945 km
right ascension of ascending node: 218.3781°
argument of perigee: 182.2149°
revolutions per day: 14.17300674
mean anomaly at epoch: 237.6716°
orbit number at epoch: 77453

The dashed part of the orbit path shows where the satellite is in the earth's shadow,  

DLR